TimeCDT,TemperatureF,Dew PointF,Humidity,Sea Level PressureIn,VisibilityMPH,Wind Direction,Wind SpeedMPH,Gust SpeedMPH,PrecipitationIn,Events,Conditions,WindDirDegrees,DateUTC
12:53 AM,72.0,71.1,97,29.91,5.0,Calm,Calm,-,N/A,,Clear,0,2013-09-03 05:53:00
1:53 AM,72.0,70.0,93,29.91,6.0,Calm,Calm,-,N/A,,Partly Cloudy,0,2013-09-03 06:53:00
2:53 AM,71.1,70.0,96,29.91,5.0,Calm,Calm,-,N/A,,Clear,0,2013-09-03 07:53:00
3:53 AM,71.1,70.0,96,29.92,5.0,Calm,Calm,-,N/A,,Clear,0,2013-09-03 08:53:00
4:53 AM,71.1,70.0,96,29.92,6.0,Calm,Calm,-,N/A,,Scattered Clouds,0,2013-09-03 09:53:00
5:53 AM,71.1,69.1,93,29.94,5.0,Calm,Calm,-,N/A,,Mostly Cloudy,0,2013-09-03 10:53:00
6:53 AM,72.0,70.0,93,29.96,5.0,Calm,Calm,-,N/A,,Partly Cloudy,0,2013-09-03 11:53:00
7:53 AM,75.0,72.0,90,29.98,6.0,Calm,Calm,-,N/A,,Partly Cloudy,0,2013-09-03 12:53:00
8:53 AM,79.0,73.0,82,29.97,8.0,NNE,3.5,-,N/A,,Partly Cloudy,30,2013-09-03 13:53:00
9:53 AM,82.9,73.0,72,29.98,10.0,NNE,5.8,-,N/A,,Scattered Clouds,30,2013-09-03 14:53:00
10:53 AM,87.1,73.9,65,29.99,10.0,ENE,4.6,-,N/A,,Clear,70,2013-09-03 15:53:00
11:53 AM,89.1,73.0,59,29.98,10.0,ENE,5.8,-,N/A,,Clear,70,2013-09-03 16:53:00
12:51 PM,91.4,71.6,52,29.97,2.0,Variable,3.5,-,N/A,,Haze,0,2013-09-03 17:51:00
12:53 PM,91.9,72.0,52,29.96,2.0,Variable,3.5,-,N/A,,Haze,0,2013-09-03 17:53:00
1:00 PM,91.4,71.6,52,29.97,10.0,NE,8.1,-,N/A,,Scattered Clouds,40,2013-09-03 18:00:00
1:53 PM,93.0,69.1,45,29.95,10.0,Variable,4.6,-,N/A,,Clear,0,2013-09-03 18:53:00
2:53 PM,93.0,69.1,45,29.92,10.0,NNW,9.2,-,N/A,,Scattered Clouds,340,2013-09-03 19:53:00
3:53 PM,93.0,66.9,42,29.90,10.0,North,10.4,-,N/A,,Clear,10,2013-09-03 20:53:00
4:53 PM,91.0,66.9,45,29.90,10.0,North,10.4,-,N/A,,Clear,350,2013-09-03 21:53:00
5:53 PM,89.1,66.0,46,29.91,10.0,North,6.9,-,N/A,,Clear,350,2013-09-03 22:53:00
6:53 PM,82.9,66.9,58,29.92,10.0,North,4.6,-,N/A,,Clear,360,2013-09-03 23:53:00
7:53 PM,77.0,66.9,71,29.94,10.0,Calm,Calm,-,N/A,,Clear,0,2013-09-04 00:53:00
8:53 PM,72.0,68.0,87,29.97,10.0,Calm,Calm,-,N/A,,Clear,0,2013-09-04 01:53:00
9:53 PM,73.0,66.9,81,30.00,10.0,Calm,Calm,-,N/A,,Clear,0,2013-09-04 02:53:00
10:53 PM,69.1,66.9,93,30.00,10.0,Calm,Calm,-,N/A,,Clear,0,2013-09-04 03:53:00
11:53 PM,69.1,66.9,93,30.00,10.0,Calm,Calm,-,N/A,,Clear,0,2013-09-04 04:53:00